EHI
3 2 2 2 1 1 0 0 1 0 0 1 2 4 5 3 1 1 0 0 0 0 0 0 0 1 1 1 0 0 0 0 0 0 0 0 0 0
3 3 3 2 1 1 0 1 1 0 0 0 1 3 3 2 1 1 0 0 0 0 0 0 0 0 0 0 0 0 0 0 0 0 0 0 0 0
4 4 3 3 2 1 1 1 1 0 0 0 1 2 2 1 0 0 0 0 0 0 0 0 0 0 0 0 0 0 0 0 0 0 0 0 0 0
6 5 4 3 3 2 2 2 1 1 1 0 0 1 2 2 1 0 0 0 0 0 0 0 0 0 0 0 0 0 0 0 0 0 0 0 0 0
7 6 5 4 4 3 3 3 3 2 2 1 0 1 1 1 1 0 0 0 0 0 0 0 0 0 0 0 0 0 0 0 0 0 0 0 0 0
7 7 6 6 5 4 3 3 3 4 3 2 1 0 0 0 0 0 0 0 0 0 0 0 0 0 0 0 0 0 0 0 0 0 0 0 0 0
6 6 6 5 4 3 3 3 4 5 4 3 2 1 0 0 0 0 0 0 0 0 0 0 0 0 0 0 0 0 0 0 0 0 0 0 0 0
6 6 6 5 4 3 3 3 3 4 4 3 3 2 1 0 0 0 0 0 0 0 0 0 0 0 0 0 0 0 0 0 0 0 0 0 0 0
6 6 6 5 4 4 3 2 2 2 2 3 3 3 2 1 1 0 0 0 0 0 0 0 0 0 0 0 0 0 0 0 0 0 0 0 0 0
6 6 6 6 5 5 5 4 3 3 2 2 2 2 2 2 1 0 0 0 0 0 0 0 0 0 0 0 0 0 0 0 0 0 0 0 0 0
6 6 6 6 5 5 5 6 6 5 4 2 1 1 1 1 1 0 0 0 0 0 0 0 0 0 0 0 0 0 0 0 0 0 0 0 0 0
6 6 6 5 4 3 4 6 6 6 5 3 1 1 0 0 0 0 0 0 0 0 0 0 0 0 0 0 0 0 0 0 0 0 0 0 0 0
6 5 4 3 2 1 2 4 5 5 5 5 4 2 1 0 0 0 0 0 0 0 0 0 0 0 0 0 0 0 0 0 0 0 0 0 0 0
4 4 3 2 1 0 0 1 2 2 4 5 5 3 1 0 0 0 0 0 0 0 0 0 0 0 0 0 0 0 0 0 0 0 0 0 0 0
2 2 2 1 0 0 0 0 0 0 2 4 4 2 1 0 0 0 0 0 0 0 0 0 0 0 0 0 0 0 0 0 0 0 0 0 0 0
1 1 1 0 0 0 0 0 0 0 0 1 1 1 0 0 0 0 0 0 0 0 0 0 1 0 0 0 0 0 0 0 0 0 0 0 0 0
0 0 0 0 0 0 0 0 0 0 0 0 0 0 0 0 0 0 0 0 0 0 0 0 0 0 0 0 0 0 0 0 0 0 0 0 0 0
0 0 0 0 0 0 0 0 0 0 0 0 0 0 0 0 0 0 0 0 0 0 0 0 0 0 0 0 0 0 0 0 0 0 0 0 0 0
0 0 0 0 0 0 0 0 0 0 0 0 0 0 0 0 0 0 0 0 0 0 0 0 0 0 0 0 0 0 0 0 0 0 0 0 0 0
0 0 0 0 0 0 0 0 0 0 0 0 0 0 0 0 0 0 0 0 0 0 0 0 0 0 0 0 0 0 0 0 0 0 0 0 0 0
0 0 0 0 0 0 0 0 0 0 0 0 0 0 0 0 0 0 0 0 0 0 0 0 0 0 0 0 0 0 0 0 0 0 0 0 0 0
0 0 0 0 0 0 0 0 0 0 0 0 0 0 0 0 0 0 0 0 0 0 0 0 0 0 0 0 0 0 0 0 0 0 0 0 0 0
0 0 0 0 0 0 0 0 0 0 0 0 0 0 0 0 0 0 0 0 0 0 0 0 0 0 0 0 0 0 0 0 0 0 0 0 0 0
Wind_Speed
1 1 1 1 2 1 1 1 1 2 2 1 0 1 1 2 3 3 3 6 6 6 6 7 7 8 8 8 8 8 8 8 8 7 7 8 9 9
0 1 1 2 2 1 1 1 1 1 2 1 1 0 0 1 3 2 3 6 7 7 7 7 7 8 8 8 8 8 8 8 8 8 9 9 9 9
1 1 1 2 2 2 1 1 1 1 1 1 0 0 0 1 1 2 2 3 4 8 8 8 8 8 8 9 9 9 9 9 9 9 9 9 9 9
1 1 2 2 2 2 2 2 1 1 1 2 1 1 1 2 2 3 3 3 3 7 9 9 9 9 9 9 9 9 9 9 9 9 9 9 9 9
1 1 2 2 2 2 2 2 1 1 1 1 2 1 1 1 1 2 3 2 4 5 8 9 9 9 9 9 9 10 10 10 10 10 10 9 9 9
1 1 2 1 1 2 2 2 1 2 2 2 2 2 1 1 1 2 2 2 3 3 4 5 8 10 10 10 10 10 11 11 11 11 11 10 10 9
1 1 1 1 1 1 2 1 2 2 2 2 2 2 1 1 1 2 2 2 2 2 2 2 3 4 5 8 9 10 10 10 11 11 11 11 11 10
2 2 1 0 1 2 2 2 2 3 3 2 2 2 2 2 1 2 2 2 3 2 2 3 2 2 2 3 7 10 11 11 11 11 11 11 11 11
2 1 2 2 1 2 2 3 4 6 5 3 3 4 3 3 2 3 2 3 4 3 2 3 2 2 2 3 6 9 10 11 11 11 11 11 12 12
2 2 2 1 3 3 3 2 3 3 4 4 3 4 4 3 3 3 3 4 4 3 2 3 3 3 3 2 5 8 10 11 11 11 11 11 11 11
2 2 2 1 2 3 2 3 3 3 4 5 5 5 5 6 4 2 3 3 4 4 2 3 3 3 3 3 4 8 9 10 11 12 12 12 12 11
2 3 3 3 3 3 3 3 4 4 4 4 4 5 5 5 6 4 3 3 4 4 2 2 2 2 3 2 2 3 4 7 10 11 12 12 12 7
3 2 2 4 5 5 5 4 6 5 5 5 4 4 3 3 3 4 4 3 4 4 3 2 2 2 2 3 3 2 3 3 4 5 9 12 12 10
4 2 1 2 4 6 6 7 8 6 5 4 4 3 3 3 3 3 4 4 4 5 4 3 3 3 3 4 3 3 2 2 2 3 3 6 9 12
4 5 6 7 6 6 9 10 7 5 4 5 4 4 3 3 3 2 3 3 4 5 5 4 4 3 3 3 3 3 3 3 2 2 2 3 4 4
5 6 8 9 8 8 7 6 5 5 5 5 4 4 3 2 3 3 3 3 3 3 3 3 3 4 3 4 3 3 3 3 2 2 2 3 3 3
4 4 4 4 4 4 4 4 3 3 4 4 4 4 3 3 3 2 2 2 3 3 3 2 2 2 3 3 3 3 3 3 3 2 2 3 3 3
2 4 4 4 4 4 4 3 2 2 3 3 3 3 3 3 3 2 2 3 3 3 3 2 2 1 2 3 4 4 3 3 3 3 2 2 3 3
3 5 4 4 4 4 3 3 3 3 3 3 3 3 3 3 3 2 3 3 3 3 3 2 2 2 3 4 3 3 3 3 3 3 2 3 3 3
4 5 4 4 3 3 3 3 3 3 2 2 2 2 2 2 2 3 2 3 3 3 3 2 3 3 3 4 3 3 5 4 2 3 3 2 2 2
4 4 4 3 3 2 2 2 3 3 2 2 2 2 2 2 2 3 3 3 3 3 3 3 3 3 2 2 2 3 3 4 5 3 3 3 3 3
4 3 3 2 2 2 2 2 2 2 2 2 2 2 2 2 3 3 3 3 2 3 3 3 2 2 2 3 3 3 3 2 3 5 6 5 3 3
3 3 3 2 2 2 2 3 2 2 2 2 2 2 2 3 3 3 3 3 3 3 3 2 2 2 2 2 3 3 4 3 2 2 2 3 5 5
Wind_Direction
267 282 281 288 286 288 276 237 230 262 273 271 242 189 177 141 158 173 159 174 182 192 201 209 215 217 219 221 222 222 223 225 228 231 234 236 235 236
294 307 308 295 299 299 287 286 246 236 264 272 260 222 141 202 174 179 175 172 187 197 204 210 215 217 218 220 221 221 222 224 227 231 233 236 237 234
316 321 298 293 307 305 310 308 292 253 263 277 230 264 257 267 202 199 188 189 197 205 209 213 215 217 219 221 220 221 222 224 228 231 233 234 236 232
297 308 305 303 311 326 333 322 315 294 272 286 285 255 239 226 217 221 227 217 206 208 210 214 217 219 221 223 222 222 221 221 223 226 230 232 232 232
327 323 324 338 336 336 321 315 308 299 256 269 279 267 255 254 240 246 245 246 239 220 212 215 218 220 223 223 225 225 222 220 220 222 224 225 226 226
355 339 325 343 338 321 305 306 306 304 285 268 268 261 251 248 219 258 265 251 250 243 229 216 219 220 224 225 227 227 224 221 221 221 221 220 222 224
329 330 343 35 17 320 308 329 310 285 280 273 275 274 266 262 253 264 274 276 269 250 249 238 219 218 219 227 229 230 229 226 224 222 220 220 220 222
307 318 292 187 238 241 258 272 270 269 280 282 281 276 273 266 262 265 278 286 282 269 263 268 242 235 224 213 216 214 220 224 226 224 222 222 222 224
277 294 303 319 324 289 258 251 256 252 240 246 267 273 279 275 271 275 273 271 271 269 274 279 269 259 254 254 217 209 211 215 219 222 222 221 222 223
261 249 254 279 309 315 297 285 273 268 241 233 242 259 269 276 268 259 261 269 271 268 246 263 267 263 267 255 226 216 212 212 215 219 220 220 222 223
249 256 258 256 290 302 290 287 287 287 273 259 245 252 259 267 271 278 268 268 279 280 255 244 258 268 264 245 237 227 220 218 218 220 222 220 219 219
236 226 232 242 244 250 260 278 280 284 295 291 269 264 254 250 241 230 243 251 266 275 268 260 265 273 275 259 240 227 226 229 226 226 226 223 216 213
273 243 207 220 237 249 250 254 262 274 282 275 261 252 242 231 225 220 225 232 253 266 272 274 272 272 267 281 286 254 225 224 217 228 229 225 217 209
293 305 321 266 256 257 255 260 269 276 270 269 267 261 247 241 235 227 226 229 232 246 259 256 260 260 265 273 279 283 275 249 225 219 216 215 217 216
284 298 291 278 269 259 250 258 264 261 260 264 266 264 256 245 234 231 240 245 250 254 253 241 240 252 249 259 268 278 287 278 258 242 229 216 208 202
273 276 270 263 259 263 268 253 240 246 251 258 264 268 265 253 249 241 237 241 256 269 263 253 240 237 248 252 255 266 269 269 267 248 238 239 231 214
293 281 273 262 252 253 255 252 243 243 250 257 263 267 264 259 253 245 240 249 253 262 268 269 254 239 237 245 250 256 261 265 264 260 252 256 248 240
289 277 276 276 277 281 279 272 264 264 262 258 259 264 262 259 258 254 245 243 246 256 258 254 244 253 267 267 239 249 262 267 268 265 252 255 262 252
250 265 271 277 275 277 276 281 283 274 270 268 268 268 272 269 260 259 257 254 251 254 257 254 248 240 259 272 265 237 255 264 263 258 248 245 257 258
248 260 265 267 271 280 281 279 282 281 274 274 272 271 268 268 270 273 269 262 262 265 267 260 254 243 244 261 269 264 248 245 252 264 267 272 267 263
263 263 267 274 279 273 275 284 284 285 289 288 279 282 285 287 283 283 282 278 268 268 269 265 259 249 248 261 269 272 269 243 226 233 247 250 258 253
272 280 278 273 288 293 282 278 283 285 288 285 293 295 295 289 286 284 286 281 271 275 286 287 280 259 252 257 266 273 276 269 243 245 246 239 229 231
275 283 289 287 284 285 290 290 292 297 301 302 301 293 282 279 282 284 287 288 288 286 286 286 291 283 272 264 265 276 281 275 262 273 278 261 233 229